BEIDOU 6 (C04)

Last updated on Oct. 29, 2020, 5:53 a.m. UTC

1 37210U 10057A   20302.61722740 -.00000114  00000-0  00000-0 0  9999
2 37210   0.7584  40.2032 0006921 174.7286 204.7412  1.00271734 36658
UTC
Height (km)
Latitude
Longitude
Inclination
Orbital Period
UTC large
Height (km)
Speed (km/s)
/
Latitude / Longitude
Inclination (degrees)
Orbital Period (minutes)
Azimuth
Elevation
Range (km)
Doppler Factor
iOS Compass Heading
iOS Angle

Next 30 passes for location: Hong Kong

Rise time Rise Azimuth (degrees) Set time Set Azimuth (degrees) Duration Max altitude (degrees)

No matching passes for this satellites